User: anonymous   Login
Location: Unspecified
(0.0000°N, 0.0000°E)
Time: 20:49:13
(UTC+00:00)
Language:

Nadezhda 5 - Orbit

View from above orbital plane
View from above orbital plane
View from above satellite
View from above satellite

Ground track
Ground track

The orbit data is extracted from the following two-line orbital elements,

1 25567U 98072A   18141.23886626  .00000068  00000-0  58659-4 0  9998
2 25567  82.9466  99.5152 0026288  14.7239  99.9393 13.71835131973537
Epoch (UTC): 21 May 2018 05:43:58
Eccentricity: 0.0026288
inclination: 82.9466°
perigee height: 973 km
apogee height: 1012 km
right ascension of ascending node: 99.5152°
argument of perigee: 14.7239°
revolutions per day: 13.71835131
mean anomaly at epoch: 99.9393°
orbit number at epoch: 97353

The dashed part of the orbit path shows where the satellite is in the earth's shadow,  

DLR